Погода в Учкулаче

Узбекистан     40°30′30″N   67°20′35″E
темп.,
°C
ветер,
м/с
пор.,
м/с
влажн.,
%
обл.,
%
осадки,
мм/ч
давл.,
гПа
погр.,
м
3 марта, ср
ср323:00+7ссв225567 0.0 102530
02:00+6с2263100 0.0 102558
05:00+4св127797 0.0 102551
08:00+4в127816 0.0 1025145
11:00+7всв326611 0.0 1023454
14:00+12всв32490 0.0 1020662
17:00+12св43506 0.0 1020706
20:00+9св236024 0.0 102145
4 марта, чт
чт423:00+7всв007113 0.0 102122
02:00+6вюв12700 0.0 102023
05:00+6ююв12640 0.1 102022
08:00+8ю235827 0.1 101930
11:00+15ююз374464 0.2 10171041
14:00+14зюз7954100 0.2 10161049
17:00+16зюз81248100 0.3 10171317
20:00+7сз10157094 0.4 1023618
5 марта, пт
пт523:00+7ссз467691 0.4 1027687
02:00+4ссз5692100 3.3 1030488
05:00+3с4588100 4.4 1032407
08:00+2всв2389100 0.3 1032280
11:00+5в347292 0.3 1030637
14:00+9в555218 0.0 10261085
17:00+10в674610 0.0 10231041
20:00+7вюв45580 0.0 102391
6 марта, сб
сб623:00+6юв345950 0.0 102071
02:00+6вюв4663100 0.0 101789
05:00+6вюв51067100 0.0 1014270
08:00+6вюв3868100 0.0 1013314
11:00+11юв5846100 0.0 1012833
14:00+12ююв3451100 0.2 1012687
17:00+10вюв5674100 1.0 1012309
20:00+9ююв3481100 1.6 1014184
7 марта, вс
вс723:00+8юз61373100 1.7 1016673
02:00+7юз121974100 0.1 10171111
05:00+6зюз71274100 0.1 1019780
08:00+6юз4873100 0.0 1021713
11:00+7ююз5667100 0.0 1020842
14:00+9ююз5759100 0.0 10191156
17:00+9ю455696 0.0 10171059
20:00+7ююз45672 0.0 101877